Location: *
(60.1759°S, 155.0663°W)
Time: 21:48:02
(UTC+00:00)

CORIOLIS - Pass Details

Date: 17 September 2019
Orbit: 818 x 839 km, 98.7° (Epoch: 16 October)

Event Time Altitude Azimuth Distance (km) Brightness Sun altitude
Rises 15:39:57 0° 13° (NNE) 3,386 7.4 -6.2°
Reaches altitude 10° 15:42:19 10° 11° (N) 2,462 6.7 -5.9°
Maximum altitude 15:47:47 73° 286° (WNW) 894 4.2 -5.3°
Drops below altitude 10° 15:53:20 10° 200° (SSW) 2,498 6.5 -4.6°
Sets 15:55:45 0° 198° (SSW) 3,440 7.2 -4.3°
